GEFSSGP_con_prob3kmehi_258.txt.gz
EHI
11 9 7 6 3 1 0 0 0 0 0 0 0 0 0 0 0 0 0 0 0 0 0 0 0 0 0 0 0 0 0 0 0 1 0 0 0 0 0 0 0 0 0 0 0 1 2 1 0
7 6 5 4 1 0 0 0 0 0 0 0 0 0 0 0 0 0 0 0 0 0 0 0 0 0 0 0 0 0 0 0 1 1 1 0 0 0 0 0 0 0 0 0 0 1 2 1 0
3 3 3 1 0 0 0 0 0 0 0 0 0 0 0 0 0 0 0 0 0 0 0 0 0 0 1 1 1 1 0 0 1 1 1 0 0 0 0 0 0 0 0 0 0 1 1 0 0
3 3 2 1 0 0 0 0 0 0 0 0 0 0 0 0 0 0 0 0 0 0 0 0 0 1 2 2 2 2 1 0 0 0 0 0 0 0 0 0 0 0 0 0 0 1 0 0 0
3 2 1 0 0 0 0 0 0 0 0 0 0 0 0 0 0 0 0 0 0 0 0 1 1 2 3 3 3 3 2 0 0 0 0 0 0 0 0 0 0 0 0 0 0 0 0 0 0
2 1 0 0 0 0 0 0 0 0 0 0 0 0 0 0 0 0 0 0 0 0 0 1 2 3 3 3 3 3 2 1 0 0 1 0 0 1 1 1 1 1 1 1 1 0 0 0 0
2 1 0 0 0 0 0 0 0 0 0 0 0 0 0 0 0 0 0 0 0 0 0 0 1 3 3 3 4 3 3 2 1 0 0 0 0 1 2 2 2 2 2 2 1 0 0 0 0
2 1 0 0 0 0 0 0 0 0 0 0 0 0 0 0 0 0 0 0 0 0 0 0 1 2 3 3 4 5 5 4 2 1 0 1 1 1 1 1 1 1 1 1 1 0 0 1 1
2 1 0 0 0 0 0 0 0 0 0 0 0 0 0 0 0 0 0 0 0 0 0 0 1 2 2 2 3 5 6 5 3 1 1 2 2 1 0 0 0 1 1 0 0 0 0 1 1
2 1 0 0 0 0 0 0 0 0 0 0 0 0 0 0 0 1 0 0 0 0 0 0 0 1 1 2 3 4 4 4 3 2 3 3 3 2 0 0 0 0 1 1 0 0 0 0 1
1 0 0 0 0 0 0 0 0 0 0 0 0 0 0 0 0 0 0 0 0 0 0 0 0 1 1 2 3 3 3 3 2 2 4 4 3 1 0 0 0 0 0 0 0 0 1 0 0
0 0 0 0 0 0 0 0 0 0 0 0 1 1 1 0 0 0 0 0 0 0 0 0 1 2 3 3 4 4 4 3 2 3 4 4 2 1 0 0 0 0 0 0 0 0 0 0 0
0 0 0 0 0 0 0 0 0 0 0 0 1 2 2 1 0 0 0 0 0 0 0 0 1 2 3 4 5 5 5 4 3 3 4 3 1 0 0 0 0 0 0 0 0 0 0 0 0
0 0 0 0 0 0 0 0 0 0 1 2 2 2 2 1 0 0 0 0 0 0 1 1 0 1 2 4 4 4 4 3 2 1 1 1 0 0 0 0 0 0 0 0 0 0 0 0 0
0 0 0 0 0 0 0 0 0 1 2 3 2 1 2 1 1 1 2 2 1 1 2 2 1 1 3 3 3 2 1 1 1 1 1 0 0 0 0 0 0 0 0 0 0 0 0 0 0
0 0 0 0 0 0 0 0 0 2 3 4 2 1 1 1 1 2 3 3 3 3 3 3 3 4 5 4 2 1 1 1 2 2 2 1 0 1 1 1 1 1 0 0 0 0 0 1 1
0 0 0 0 0 0 0 0 0 1 3 5 3 1 1 1 1 2 3 4 4 4 5 5 6 6 7 6 3 1 2 2 2 2 2 1 0 1 2 2 2 2 1 0 1 1 1 1 1
0 0 0 0 0 0 0 0 0 1 3 4 3 2 2 2 1 2 3 3 4 7 8 8 9 8 8 7 4 3 3 3 3 1 1 0 0 1 2 3 3 3 2 1 2 3 3 2 2
0 0 0 0 0 0 0 0 0 2 3 3 3 3 3 3 4 4 4 4 6 10 12 11 11 10 9 8 6 4 4 3 2 1 0 0 0 1 2 2 3 4 3 2 3 5 4 3 4
0 0 0 0 0 0 0 0 1 3 3 2 2 2 3 4 6 7 7 7 9 12 13 13 13 11 9 9 9 7 5 3 1 0 1 1 1 1 2 2 2 3 4 4 6 7 6 5 5
0 0 0 0 0 0 0 0 2 4 4 3 2 2 2 4 8 10 11 11 12 13 15 15 15 14 13 12 11 8 7 5 1 1 2 2 2 2 3 2 2 2 3 5 7 9 9 8 7
0 0 0 0 0 0 0 0 2 5 7 7 5 2 1 4 9 13 14 14 13 13 14 16 17 18 18 17 14 11 8 5 1 1 2 4 4 3 3 3 3 3 3 5 7 8 9 10 10
0 0 0 0 0 0 0 0 1 5 8 11 10 5 2 4 9 13 14 14 13 13 13 15 17 21 23 23 21 16 10 5 2 2 3 5 5 4 4 5 5 4 3 5 7 9 9 10 10
0 0 0 0 0 0 0 0 1 4 7 11 12 8 5 5 9 12 14 15 15 15 14 14 18 22 25 25 23 19 14 9 7 5 6 7 6 5 5 6 6 6 5 7 9 10 9 8 8
0 0 0 0 0 0 0 1 2 4 5 8 11 11 9 9 11 14 17 19 18 17 16 17 20 23 25 25 23 21 19 14 12 10 8 8 5 3 5 6 6 6 7 8 9 8 7 7 8
0 0 0 0 0 0 1 2 3 4 6 7 9 12 13 13 15 18 21 22 20 19 18 18 21 26 29 28 25 23 20 15 14 14 11 8 5 3 4 6 7 7 8 9 9 8 7 7 8
0 0 0 0 0 0 1 3 4 4 6 7 9 12 14 15 18 22 23 22 20 19 17 16 20 28 33 33 29 24 19 15 15 17 17 11 8 6 6 6 7 7 8 9 10 10 9 8 8
0 0 0 0 0 0 1 3 4 4 5 6 9 12 14 16 19 22 22 21 20 18 15 15 20 26 30 32 30 26 22 19 18 21 21 16 13 11 9 7 6 7 7 9 10 10 10 10 10
0 0 0 0 0 0 0 2 4 4 4 5 7 10 12 16 19 21 21 20 20 17 15 15 20 24 26 27 29 29 27 25 23 24 23 19 17 14 10 8 7 8 8 9 10 10 10 12 12
0 0 0 0 0 0 1 2 3 4 3 4 5 7 10 14 18 20 20 21 19 16 14 15 19 23 23 23 27 31 31 30 28 26 23 20 18 14 11 9 9 9 11 12 10 9 9 12 14

GEFSSGP_con_prob3kmehi_264.txt.gz
EHI
16 21 31 32 18 4 0 0 0 0 0 1 2 1 1 1 1 0 1 2 2 1 0 0 0 0 0 0 0 0 0 0 0 0 0 0 0 0 0 0 1 1 1 0 0 0 0 0 0
16 23 28 23 10 2 0 0 0 0 0 1 1 1 1 1 0 0 0 1 1 0 0 0 0 0 0 0 0 0 0 0 0 0 0 0 0 0 0 0 0 0 0 0 0 0 0 0 0
20 24 22 12 3 0 0 0 0 0 0 0 0 0 0 0 0 0 0 0 0 0 0 0 0 0 0 0 0 0 0 0 0 0 0 0 0 0 0 0 0 0 0 0 0 0 0 0 0
25 23 14 5 1 0 0 0 0 0 0 0 0 0 0 0 0 0 0 0 0 0 0 0 0 0 0 0 0 0 0 0 0 0 0 0 0 0 0 0 0 0 0 0 0 0 0 0 0
22 15 7 2 0 0 0 0 0 0 0 0 0 0 0 0 0 0 0 0 0 0 1 3 3 2 1 0 0 0 0 0 0 0 0 0 0 0 0 0 0 0 0 0 0 0 0 0 0
14 9 3 0 0 0 0 0 0 0 0 0 0 0 0 0 1 1 1 0 0 0 2 5 7 7 6 4 2 1 0 0 0 0 0 0 1 1 1 0 0 0 0 0 0 0 0 0 0
10 6 2 0 0 0 0 0 0 0 0 1 0 0 0 1 3 3 2 1 0 0 1 5 7 9 10 9 6 5 4 3 3 3 3 4 5 5 5 3 2 1 0 0 0 0 0 0 0
6 4 1 0 0 0 0 0 0 0 0 0 0 0 0 2 3 4 3 2 1 0 0 2 4 6 9 9 8 9 9 8 7 8 9 10 10 9 8 6 5 3 2 1 0 0 0 0 1
3 1 0 0 0 0 0 0 0 0 0 0 0 1 1 1 2 3 3 3 2 1 0 0 2 3 4 5 7 10 11 10 10 10 11 13 11 7 6 7 7 7 5 4 3 2 1 1 1
1 0 0 0 0 0 0 0 0 0 1 1 2 3 2 1 1 2 3 3 2 1 0 1 1 1 1 2 4 6 7 8 8 7 8 9 7 3 2 5 7 8 7 5 6 5 3 1 1
0 0 0 0 0 0 0 0 0 0 1 3 4 4 3 1 1 1 3 3 3 1 1 1 2 2 2 2 3 3 3 4 5 5 6 7 5 2 1 3 6 8 5 3 5 6 4 2 2
0 0 0 0 0 0 0 0 0 0 2 3 3 4 3 1 1 2 3 3 3 2 2 3 6 5 4 6 6 3 2 3 4 6 9 8 5 3 2 2 5 6 4 2 2 3 4 3 2
0 0 0 0 0 0 0 0 0 0 2 2 2 2 2 2 2 3 4 4 3 3 3 5 8 7 6 8 8 4 4 5 7 10 11 9 6 4 3 4 5 5 3 2 1 2 3 3 2
0 0 0 0 0 0 0 0 0 0 1 3 2 1 2 3 4 5 5 5 4 4 6 7 9 9 9 8 6 4 5 8 10 12 12 9 6 4 4 4 3 2 2 2 2 2 4 4 3
0 0 0 0 0 0 0 0 0 0 1 3 4 2 3 5 6 7 8 7 6 8 10 10 9 10 13 12 8 5 6 8 10 11 12 9 6 6 5 2 1 1 1 3 3 2 4 5 3
0 0 0 0 0 0 0 0 0 0 1 3 4 4 5 6 6 7 9 9 9 11 14 14 11 12 15 18 16 11 7 8 8 9 10 9 7 6 4 2 1 2 3 4 4 3 4 3 2
0 0 0 0 0 0 0 1 2 2 2 3 4 5 6 7 7 8 10 10 11 14 17 18 16 14 16 20 20 16 13 11 10 10 10 9 7 5 4 4 5 6 6 6 5 4 4 4 5
0 0 0 0 0 0 0 1 3 4 4 5 7 8 8 9 11 12 13 12 13 18 21 22 21 19 19 22 23 22 19 17 16 16 15 13 10 9 8 7 8 9 9 7 5 5 6 7 8
0 0 0 0 0 0 0 2 3 4 4 7 10 12 13 15 17 17 17 15 16 22 27 27 26 24 25 26 27 26 23 20 21 22 22 20 16 15 14 10 9 9 8 5 3 5 7 8 8
0 0 0 0 0 0 0 2 4 4 4 8 12 15 18 19 22 24 23 20 21 28 32 31 29 28 28 28 28 27 24 21 21 24 26 26 21 18 16 13 10 9 8 6 5 7 8 7 5
0 0 0 0 0 0 0 2 4 5 7 10 15 18 20 23 28 30 28 26 29 34 37 36 35 33 30 28 26 25 24 23 23 27 31 30 24 18 15 13 11 10 9 8 10 12 11 8 6
0 0 0 0 0 0 0 1 3 6 10 14 18 20 21 26 31 32 32 33 36 37 39 42 45 43 37 32 27 25 25 25 28 33 37 35 29 21 17 14 12 11 9 9 12 14 13 11 9
0 0 0 0 0 0 0 0 3 8 12 16 19 20 20 25 30 33 36 39 39 35 38 47 54 53 46 39 32 28 26 26 29 36 40 38 34 28 22 17 15 13 10 8 10 12 13 11 10
0 0 0 0 0 0 0 1 3 8 11 15 19 20 19 22 28 34 42 46 41 35 38 51 63 63 54 45 38 34 31 29 30 34 37 36 35 32 26 21 17 15 12 10 9 10 11 12 12
0 0 0 0 0 0 1 2 4 7 9 12 17 20 19 22 28 37 48 53 48 42 45 58 70 70 60 48 41 38 36 34 33 34 33 31 30 31 28 24 21 18 14 12 12 12 12 13 15
0 0 0 0 0 0 1 3 5 6 7 9 14 18 20 22 28 37 48 54 53 51 55 64 72 72 64 53 46 42 39 35 34 35 33 29 26 27 29 27 23 20 14 12 14 13 13 16 17
0 0 0 0 0 0 1 4 6 6 6 8 11 16 19 22 27 33 41 48 50 52 57 65 72 73 65 57 52 48 43 37 34 34 34 31 25 24 28 27 23 20 15 14 15 13 13 17 19
0 0 0 0 0 0 2 5 6 6 7 8 9 14 19 22 25 28 33 40 43 45 51 60 69 71 66 59 54 51 48 43 38 36 36 34 28 26 28 27 24 21 18 17 16 15 16 18 19
0 0 0 0 0 0 1 4 5 7 8 7 8 13 21 25 26 27 30 35 39 42 46 55 63 66 64 58 52 49 49 48 45 41 38 36 34 32 31 31 29 26 23 22 22 21 22 21 20
0 0 0 0 0 0 1 3 5 6 7 7 7 12 21 27 28 29 30 34 39 43 45 52 60 63 60 57 52 48 49 51 49 44 40 38 36 37 36 34 32 30 28 27 27 27 26 24 21

GEFSSGP_con_prob3kmehi_270.txt.gz
EHI
15 11 5 1 0 0 0 0 0 0 0 0 0 0 0 0 0 0 0 0 0 0 0 0 1 0 0 1 2 2 2 1 0 0 0 0 0 0 0 1 2 2 2 1 0 0 0 1 1
9 7 4 1 0 0 0 0 0 0 0 0 0 0 0 0 0 0 0 0 0 0 0 1 1 1 0 0 1 1 1 1 0 0 0 0 0 0 0 0 1 1 1 1 0 0 1 2 2
6 4 2 1 0 0 0 0 0 0 0 0 0 0 0 0 0 0 0 0 0 0 0 1 2 1 0 0 0 0 0 0 0 0 0 0 0 0 0 0 0 0 0 0 0 0 1 2 3
6 3 1 0 0 0 0 0 0 0 0 0 0 0 0 0 0 0 0 0 0 0 0 1 2 2 1 0 0 0 0 0 0 0 0 0 0 0 0 0 0 0 0 0 0 0 1 1 1
3 2 0 0 0 0 0 0 0 0 0 0 0 0 0 0 0 0 0 0 0 0 0 1 3 3 2 1 0 0 0 0 0 0 0 1 1 1 0 0 0 0 0 0 0 0 0 0 0
2 1 0 0 0 0 0 0 0 0 0 0 0 0 0 0 0 0 0 0 0 0 0 1 3 4 4 3 2 0 0 0 0 1 1 2 2 2 1 1 1 1 1 1 0 0 0 0 0
2 1 0 0 0 0 0 0 0 0 0 0 0 0 0 0 0 0 0 0 0 0 0 0 1 3 4 5 4 3 2 3 3 3 4 4 5 4 3 2 2 2 2 2 1 0 0 0 0
3 1 0 0 0 0 0 0 0 0 0 0 0 0 0 0 0 0 0 0 0 0 0 0 0 1 2 4 6 6 7 7 7 6 6 6 5 5 3 2 1 1 1 1 1 0 0 0 0
3 1 0 0 0 0 0 0 0 0 0 0 0 0 0 0 0 0 0 0 0 0 0 0 0 0 0 2 5 6 8 8 7 5 4 4 3 2 1 1 0 0 0 0 0 0 0 0 0
2 1 0 0 0 0 0 0 0 0 0 0 0 0 0 0 0 0 0 0 0 0 0 0 0 0 0 1 2 3 5 6 5 4 2 1 1 0 0 0 0 0 0 0 0 0 0 0 0
1 0 0 0 0 0 0 0 0 1 0 0 0 0 0 0 0 0 0 0 0 0 0 0 0 0 0 0 1 2 3 5 4 3 1 0 0 0 0 0 0 0 0 0 0 0 0 0 0
0 0 0 0 0 0 0 0 0 0 0 0 0 0 0 0 0 0 0 0 0 0 0 0 0 0 0 0 1 2 3 4 3 1 1 0 0 0 0 0 0 0 0 0 0 0 0 0 0
0 0 0 0 0 0 0 0 0 0 0 0 0 0 0 0 0 0 1 1 1 0 0 0 0 0 0 1 2 3 3 2 1 0 0 0 0 0 0 0 0 0 0 0 0 0 0 0 0
0 0 0 0 0 0 1 1 2 2 1 0 0 0 0 0 0 0 1 2 1 1 1 1 1 1 0 1 2 3 2 1 0 0 0 0 0 0 0 0 0 0 0 0 0 0 0 0 0
0 0 0 0 0 1 1 2 3 4 3 1 0 0 0 0 0 1 2 3 3 2 2 2 3 3 2 2 2 1 1 1 0 0 0 0 0 0 0 0 0 0 0 0 0 0 0 0 0
0 0 0 0 0 1 2 2 3 4 4 2 1 1 1 0 1 2 4 5 4 4 3 3 4 6 5 4 2 1 1 1 1 0 0 0 0 0 0 0 0 0 0 0 0 0 0 0 0
0 0 0 0 0 2 2 1 1 2 3 2 1 1 1 1 1 2 4 6 6 6 5 5 7 9 9 6 3 2 2 2 1 0 0 0 0 0 0 0 0 0 0 0 0 0 0 0 1
0 0 0 0 1 2 2 1 0 1 2 2 2 2 1 1 2 3 4 6 7 8 8 8 8 10 10 7 3 2 3 2 1 0 0 0 0 0 0 0 0 0 1 1 0 0 0 0 1
0 0 0 1 2 3 2 1 0 0 1 1 2 2 2 1 3 5 7 9 10 10 11 10 9 9 8 6 2 1 2 2 1 0 0 1 1 1 1 0 0 1 2 2 1 0 0 0 1
0 0 0 1 2 3 2 1 0 0 1 2 2 2 2 4 6 8 11 14 15 14 12 10 9 8 6 4 2 1 1 1 0 1 1 3 3 3 2 1 1 2 3 3 1 0 0 0 0
0 0 0 1 2 2 2 1 0 0 1 2 3 3 4 7 10 13 16 18 19 18 13 10 9 8 6 5 4 3 1 1 1 1 3 4 5 5 3 3 3 3 4 4 3 2 1 1 1
0 0 0 0 1 1 1 0 0 1 2 3 4 4 5 8 13 17 20 21 23 22 16 12 10 9 9 8 8 6 4 2 1 2 4 5 6 5 4 3 3 3 4 4 4 4 4 3 2
0 0 0 0 0 0 0 0 0 1 4 6 5 4 5 8 13 19 21 22 25 25 21 16 14 12 13 14 13 10 6 2 1 3 5 5 5 5 4 3 3 4 4 5 5 4 4 4 3
0 0 0 0 0 0 0 0 0 2 4 7 7 6 6 8 13 18 21 22 24 26 24 21 19 17 17 18 16 14 10 5 3 4 6 6 5 5 4 3 4 4 5 5 5 4 3 3 3
0 0 0 0 0 0 0 0 1 2 3 5 8 8 8 9 12 18 22 23 24 26 27 25 23 21 21 20 19 17 14 10 7 6 5 6 7 6 5 4 4 3 3 3 4 4 4 3 4
0 0 0 0 0 0 0 0 1 2 3 5 8 11 11 10 12 17 21 23 24 25 27 29 27 25 25 25 24 22 20 15 11 8 5 6 8 8 6 5 4 3 2 2 3 4 4 4 4
0 0 0 0 0 0 0 0 0 1 3 5 8 12 13 11 13 16 20 23 25 25 27 31 31 28 27 30 31 28 24 20 14 11 8 7 9 9 7 5 5 4 3 2 3 4 4 4 4
0 0 0 0 0 0 0 0 0 1 2 4 8 13 15 15 14 16 19 23 25 25 27 32 32 30 30 32 33 32 27 21 16 13 13 12 11 10 9 7 6 5 4 2 1 2 3 3 3
0 0 0 0 0 0 0 0 0 1 2 5 8 13 16 17 15 15 18 21 23 23 26 32 33 32 33 33 34 33 29 23 18 17 17 16 15 14 12 11 8 6 4 3 2 3 3 3 3
0 0 0 0 0 0 0 0 0 0 2 5 9 12 16 16 14 13 16 20 21 20 24 32 34 34 35 34 34 34 30 25 22 20 19 19 19 17 14 12 10 8 5 5 6 5 4 3 3

GEFSSGP_con_prob3kmehi_276.txt.gz
EHI
4 3 1 0 0 0 0 0 0 0 0 0 0 0 0 0 0 0 0 0 0 0 1 2 3 2 1 1 3 2 1 0 0 0 0 0 0 0 0 0 0 0 0 0 0 0 0 0 0
2 1 0 0 0 0 0 0 0 0 0 0 0 0 0 0 0 0 0 0 0 0 1 2 2 1 1 2 3 2 1 0 0 0 0 0 0 1 1 0 0 0 0 0 0 0 0 0 0
1 0 0 0 0 0 0 0 0 0 0 0 0 0 0 0 0 0 0 0 0 0 0 1 1 1 1 2 2 1 0 0 0 0 0 0 0 1 1 0 0 0 0 0 0 0 0 0 0
1 0 0 0 0 0 0 0 0 0 0 0 0 0 0 0 0 0 0 0 0 0 0 0 1 1 1 1 1 0 0 0 0 0 0 0 0 1 1 0 0 0 0 0 0 0 0 0 0
1 0 0 0 0 0 0 0 0 0 0 0 0 0 0 0 0 0 0 0 0 0 0 0 1 2 2 1 0 0 0 0 0 0 0 0 0 0 0 0 0 0 0 0 0 0 0 0 0
1 0 0 0 0 0 0 0 0 0 0 0 0 0 0 0 0 0 0 0 0 0 0 0 1 3 4 2 1 1 1 1 1 2 1 1 1 1 1 0 0 0 0 0 0 0 0 0 0
2 1 0 0 0 0 0 0 0 0 0 0 0 0 0 0 0 0 0 0 0 0 0 0 0 2 3 3 3 2 2 2 3 3 3 3 3 2 2 1 1 0 0 1 0 0 0 0 0
3 3 1 0 0 0 0 0 0 0 0 0 0 0 0 0 0 0 0 0 0 0 0 0 0 0 1 2 2 2 3 3 3 3 3 3 3 2 2 2 2 1 0 0 0 0 0 0 0
4 4 2 1 0 0 0 0 0 0 0 0 0 0 0 0 0 0 0 0 0 0 0 0 0 0 0 1 1 2 2 2 3 2 2 1 1 1 1 1 1 1 0 1 1 0 0 0 0
5 4 2 1 0 0 0 0 0 0 0 0 0 0 0 0 0 0 0 0 0 0 0 0 0 0 0 1 1 2 2 2 2 2 1 0 0 0 0 0 0 0 0 1 1 0 0 0 0
4 3 1 0 0 0 0 0 0 0 0 0 0 0 0 0 0 0 0 0 0 0 0 0 0 0 1 2 2 2 1 1 1 2 1 0 0 0 0 0 0 0 0 1 1 0 0 0 0
2 1 0 0 0 1 1 0 0 0 0 0 0 1 2 1 1 1 0 0 0 0 0 0 0 1 2 2 1 1 0 0 1 1 1 0 0 0 0 0 0 0 0 0 0 0 0 0 0
1 0 0 0 0 1 2 1 0 0 0 0 0 2 3 3 2 2 1 0 0 0 0 0 1 2 2 2 1 0 0 0 0 0 0 0 0 0 0 0 0 0 0 0 0 0 0 0 0
0 0 0 0 0 1 2 1 0 0 0 0 0 1 2 3 3 3 2 1 1 1 1 1 2 2 1 1 0 0 0 0 0 0 0 0 0 0 0 0 0 0 0 0 0 0 0 0 0
0 0 0 0 0 0 1 1 0 0 0 0 0 0 1 2 2 2 2 2 2 2 1 1 2 1 0 1 1 0 0 0 0 0 0 0 0 0 0 0 0 0 0 0 0 0 0 0 0
0 0 0 0 0 0 0 0 0 0 0 0 0 0 0 1 1 1 1 2 1 1 1 2 1 1 1 2 1 0 0 0 0 0 0 0 0 0 0 0 0 0 0 0 0 0 0 0 0
0 0 0 0 0 0 0 0 0 0 0 0 0 0 0 0 0 0 0 0 0 1 2 2 2 2 2 2 1 0 0 0 0 0 0 0 0 0 0 0 0 0 0 0 0 0 0 0 0
0 0 0 0 0 1 0 0 0 0 0 0 0 0 0 0 0 0 0 0 1 2 2 2 2 3 3 2 0 0 1 0 0 0 0 0 0 0 0 0 0 0 0 0 0 0 0 0 0
0 0 0 0 1 1 0 0 0 0 0 0 0 0 0 0 0 0 0 1 3 3 2 1 1 1 2 2 1 0 0 0 0 0 0 0 0 0 0 0 0 0 0 0 0 0 0 0 0
0 0 0 0 1 0 0 0 0 0 1 1 0 0 0 0 0 1 2 4 4 4 2 1 0 0 1 2 1 0 0 0 0 0 0 0 0 0 0 0 0 0 0 0 0 0 0 0 0
0 0 0 0 0 0 0 0 0 0 1 1 1 1 0 0 1 3 5 5 4 3 2 1 1 0 0 1 1 1 1 1 1 1 0 0 1 0 0 0 0 0 0 0 0 0 0 0 0
0 0 0 0 0 0 0 0 0 0 0 1 2 2 1 1 1 4 6 5 3 2 2 1 1 1 0 1 1 2 2 3 2 1 1 1 1 0 0 0 0 0 0 0 0 0 1 1 1
0 0 0 0 0 0 0 0 0 0 0 0 1 2 3 2 2 3 4 3 2 2 2 1 0 0 0 1 2 3 2 2 2 1 1 1 0 0 0 0 0 0 0 0 0 1 2 2 2
0 0 0 0 0 0 0 0 0 0 0 0 1 2 3 4 4 3 1 2 3 4 5 3 1 0 0 1 2 2 1 1 1 1 1 1 0 0 0 0 0 0 0 0 0 1 3 3 2
0 0 0 0 0 0 0 0 0 0 0 0 1 2 4 5 4 2 1 2 4 5 7 7 4 1 0 0 1 2 1 0 0 1 1 1 0 0 0 0 0 0 0 0 0 1 2 2 1
0 0 0 0 0 0 0 0 0 0 0 0 1 2 3 3 2 1 1 2 4 6 8 10 8 3 1 1 1 1 0 1 1 1 2 1 0 0 1 1 0 0 0 0 0 1 1 1 0
0 0 0 0 0 0 0 0 0 0 0 0 0 1 1 1 1 0 0 2 5 8 9 11 10 6 3 2 2 1 1 2 3 3 3 2 1 1 2 2 1 0 0 0 0 0 0 0 0
0 0 0 0 0 0 0 0 0 0 0 0 0 0 0 0 0 0 1 2 6 8 9 11 10 6 4 4 3 3 2 3 5 4 4 4 4 4 4 3 2 1 0 0 0 0 0 0 0
0 0 0 0 0 0 0 0 0 0 0 0 0 0 0 0 0 1 2 3 5 8 8 8 8 6 5 6 6 5 5 5 5 5 5 6 6 5 4 4 3 2 1 0 1 1 0 0 0
0 0 0 0 0 0 0 0 0 0 0 0 0 0 0 0 0 1 2 4 5 7 7 5 5 6 6 7 7 6 6 6 6 5 5 6 5 5 5 4 4 3 2 1 2 2 1 0 0

GEFSSGP_con_prob3kmehi_282.txt.gz
EHI
8 5 4 4 2 1 0 0 0 0 0 0 0 0 0 0 0 0 0 0 0 0 1 1 1 0 1 1 1 0 0 1 2 2 2 1 0 0 0 0 0 1 1 1 0 0 0 0 0
6 4 4 3 1 0 0 0 0 0 0 0 0 0 0 0 0 0 0 0 0 0 0 0 0 0 0 0 0 0 0 1 1 1 1 0 0 0 0 0 0 0 0 0 0 0 0 0 0
3 3 3 2 1 0 0 0 0 0 0 0 0 0 0 0 0 0 0 0 0 0 0 1 1 0 0 0 0 0 0 0 0 0 0 0 0 0 0 0 0 0 0 0 0 0 1 0 0
3 2 2 2 1 0 0 0 0 0 0 0 0 0 0 0 0 0 0 0 0 0 1 2 1 1 1 1 1 0 0 0 0 0 0 0 1 1 1 0 0 0 0 0 0 0 0 0 0
4 3 2 1 0 0 0 0 0 0 0 0 0 0 0 0 0 0 0 0 0 0 1 1 1 1 2 2 2 1 0 0 0 0 0 1 1 1 1 1 0 0 0 0 0 0 0 0 0
5 4 2 0 0 0 0 0 0 0 0 0 0 0 0 0 0 0 0 0 0 0 0 0 0 1 2 3 3 1 0 0 0 0 0 1 1 1 1 0 0 1 1 1 0 0 1 1 1
5 4 2 0 0 0 0 0 0 0 0 0 0 0 0 0 0 0 0 0 0 0 0 0 0 1 2 3 4 3 1 0 0 0 0 0 1 1 1 0 0 1 1 1 0 1 2 2 2
4 4 1 0 0 0 0 0 0 0 0 0 0 0 0 0 0 0 0 0 0 0 1 1 1 0 1 2 4 4 3 1 1 1 1 1 1 2 1 1 1 1 1 1 1 2 3 3 3
3 2 1 0 0 0 0 0 0 0 0 0 0 0 0 0 0 0 0 0 0 1 2 2 2 1 1 2 2 3 3 2 3 3 3 2 2 2 1 0 1 1 0 0 1 2 3 3 3
3 2 0 0 0 0 0 0 0 0 0 0 0 0 0 0 0 0 0 0 0 1 2 3 4 3 3 2 2 1 1 2 3 4 4 3 2 1 0 0 0 1 0 0 0 1 3 3 3
2 1 0 0 0 0 0 0 0 0 0 0 0 0 0 0 0 0 0 0 0 1 2 3 5 5 5 3 1 0 0 1 2 3 3 3 2 0 0 0 0 0 0 0 0 1 2 3 3
1 1 0 0 0 0 0 0 0 0 0 0 1 1 1 0 0 0 0 1 1 1 2 3 5 6 6 3 1 0 0 0 1 2 3 3 1 0 0 0 0 0 0 0 0 1 2 3 3
0 0 0 0 0 0 0 0 0 0 0 0 1 1 1 0 0 0 1 2 2 2 3 4 4 4 4 3 1 1 1 0 0 2 3 2 1 0 0 0 0 0 0 0 1 1 2 3 3
0 0 0 0 0 0 0 0 0 0 0 0 0 0 0 0 0 0 1 2 3 3 4 5 3 2 2 3 2 2 1 0 0 1 2 1 0 0 0 0 0 0 0 1 2 2 3 3 4
0 0 0 0 0 0 0 0 0 0 0 0 0 0 0 0 1 1 1 2 4 5 6 5 2 0 1 3 3 2 0 0 0 0 1 1 0 0 0 0 0 0 0 1 2 3 3 4 3
0 0 0 0 0 0 0 0 0 0 1 1 1 2 1 1 3 3 3 3 5 7 8 5 2 0 1 4 4 3 1 0 0 0 0 0 0 0 1 1 0 0 0 1 2 3 3 2 1
0 0 0 0 0 0 0 0 0 0 1 2 2 3 3 3 5 5 4 5 7 9 8 6 3 2 2 3 3 3 2 1 1 1 1 1 1 1 2 2 1 0 0 0 2 4 3 2 2
0 0 0 0 0 0 0 0 0 1 1 2 4 5 5 4 5 5 4 5 8 9 8 6 5 4 3 2 2 4 3 3 2 3 4 4 3 2 2 2 1 0 0 0 1 4 4 3 3
0 0 0 0 0 0 0 0 0 2 3 4 6 8 7 5 4 4 4 6 8 8 9 9 7 5 4 3 3 3 3 3 3 3 5 6 5 4 4 3 2 1 1 1 2 3 4 3 3
0 0 0 0 0 0 0 0 0 1 3 5 6 8 7 5 4 4 4 7 9 9 10 12 11 8 5 5 3 3 2 2 1 1 3 4 6 7 7 6 4 2 2 2 2 2 2 2 2
0 0 0 0 0 0 0 0 0 1 2 3 4 5 4 4 5 6 7 8 10 11 12 13 13 12 9 6 4 3 2 1 0 0 1 2 5 8 10 9 7 4 2 2 1 1 1 0 1
0 0 0 1 0 0 0 0 1 2 2 2 2 3 4 4 6 8 8 10 11 12 13 13 14 15 13 9 6 5 3 1 0 0 0 1 4 8 9 9 8 6 4 3 2 1 1 0 0
0 0 0 0 0 0 0 0 1 2 2 1 1 3 4 5 6 8 10 11 12 13 13 14 15 17 16 12 9 7 5 3 2 1 0 1 3 7 8 9 8 7 6 5 4 4 3 2 2
0 0 0 0 0 0 0 0 0 2 2 1 1 2 3 5 6 8 11 14 15 14 14 14 16 18 17 14 11 10 8 7 7 5 2 1 3 7 8 9 8 8 7 7 7 7 5 5 6
0 0 0 0 0 0 0 0 0 1 2 2 2 1 2 4 6 8 12 16 18 18 17 16 17 19 19 18 16 15 12 10 9 8 5 4 4 6 9 10 9 8 7 8 9 9 7 8 9
0 0 0 0 0 0 0 0 0 1 1 1 2 1 1 3 6 8 10 14 17 22 23 22 21 22 21 21 21 20 17 12 10 8 7 5 3 5 9 12 11 10 8 9 10 10 9 9 10
0 0 0 0 0 0 0 0 0 0 0 1 1 1 1 2 5 7 7 9 12 19 25 26 25 26 25 23 21 21 19 15 11 10 9 7 6 7 10 13 14 12 10 10 11 11 11 11 11
0 0 0 0 0 0 0 0 0 1 1 2 2 2 1 2 3 4 5 6 9 14 20 22 23 25 25 23 20 19 19 18 14 12 12 11 11 12 13 15 16 13 12 12 13 13 13 13 13
0 0 0 0 0 0 0 0 1 2 3 3 3 2 2 2 3 4 6 7 9 12 15 18 21 21 20 20 19 18 18 18 16 13 14 14 13 15 16 17 16 14 13 13 13 12 13 14 16
0 0 0 0 0 0 0 1 2 3 3 3 2 1 1 2 3 5 7 9 10 11 12 16 20 19 17 17 19 18 17 17 16 14 14 14 13 14 16 17 15 13 13 13 12 11 12 14 16

GEFSSGP_con_prob3kmehi_288.txt.gz
EHI
6 10 16 19 14 6 1 0 0 0 0 0 0 1 1 1 0 0 1 3 2 1 0 0 0 0 0 0 0 1 1 0 0 0 0 0 0 0 0 0 0 0 1 1 1 1 2 3 1
8 12 17 17 10 3 0 0 0 0 0 0 0 0 0 0 0 1 2 3 2 1 0 0 0 0 0 0 1 2 2 1 0 0 0 0 0 0 0 0 0 0 0 1 1 1 1 1 1
12 16 17 12 5 1 0 0 0 0 0 0 0 0 0 0 0 1 2 3 2 1 0 0 0 0 0 0 1 2 2 1 0 0 0 0 0 0 0 0 0 0 1 1 1 0 0 0 0
18 18 13 6 2 0 0 0 0 0 0 0 0 0 0 0 0 0 1 2 2 1 0 1 1 1 0 0 1 2 2 1 1 1 0 0 0 0 0 0 0 0 1 1 0 0 0 0 0
20 15 8 3 1 0 0 0 0 0 0 0 0 0 0 0 0 0 0 1 1 0 0 1 2 1 0 1 1 1 1 1 2 1 0 0 0 0 0 0 0 0 1 1 0 0 0 0 1
16 10 5 2 0 0 0 0 0 0 0 0 0 0 0 0 0 0 0 0 0 0 1 2 3 2 2 3 2 2 2 2 2 2 1 1 1 1 1 1 0 0 1 1 1 0 0 1 2
12 8 4 1 0 0 0 0 0 0 0 0 0 0 0 0 0 0 0 0 0 0 1 2 3 4 4 4 4 4 4 4 3 3 4 3 3 3 2 2 1 0 1 1 1 1 1 2 3
10 7 3 1 0 0 0 0 0 0 0 0 0 0 0 0 0 0 0 0 1 0 0 1 2 3 3 3 4 5 5 4 4 5 6 5 4 3 3 2 2 1 1 1 2 2 3 4 4
7 5 2 0 0 0 0 0 0 0 0 0 0 0 0 0 0 0 0 0 1 1 0 0 1 1 1 2 3 4 4 3 3 4 6 6 4 2 1 2 3 4 4 4 5 5 6 6 5
4 3 1 0 0 0 0 0 0 0 0 0 1 1 0 0 0 0 0 0 1 2 1 1 1 1 0 1 3 3 2 3 3 4 5 5 3 1 1 3 5 6 6 7 9 9 8 7 5
2 1 0 0 0 0 0 0 0 0 0 1 2 1 0 0 0 0 0 0 1 2 3 4 4 3 2 1 1 1 1 3 3 3 4 4 3 2 2 4 6 8 8 8 11 11 8 6 6
1 0 0 0 0 0 0 0 0 0 1 2 2 1 0 1 1 1 1 1 2 3 4 5 6 5 3 1 0 0 1 2 2 3 3 3 4 4 5 5 7 9 10 9 11 11 8 8 9
0 0 0 0 0 0 0 0 0 0 1 3 3 2 1 2 2 3 4 4 4 6 5 5 5 5 3 1 1 1 1 1 2 4 5 4 4 6 7 7 8 9 9 9 11 12 11 11 12
0 0 0 0 0 0 0 0 0 0 1 3 4 3 3 3 3 5 6 6 5 6 6 5 4 4 3 2 2 2 1 2 4 5 6 5 5 7 8 10 10 10 9 10 12 14 14 15 16
0 0 0 0 0 0 0 0 0 0 1 4 5 4 3 3 4 5 7 7 6 6 7 6 5 6 7 7 5 3 3 5 7 8 7 6 6 8 9 10 12 13 13 15 15 15 15 16 16
0 0 0 0 0 0 0 0 1 1 2 5 6 4 3 3 4 5 7 8 9 10 10 8 6 7 9 11 9 6 5 7 9 11 10 9 8 9 10 12 14 17 19 18 17 15 14 14 14
0 0 0 0 0 0 0 2 4 4 4 6 7 4 2 3 4 6 7 9 13 15 14 10 8 9 9 11 11 9 8 10 11 13 13 10 9 10 13 15 17 19 19 17 15 15 15 15 15
0 0 0 0 0 0 1 3 5 6 6 7 8 6 4 4 5 8 10 12 16 19 19 14 12 12 11 10 10 9 9 11 13 15 14 11 9 11 15 19 19 18 16 12 11 14 16 16 15
0 0 0 0 0 1 2 2 4 5 5 7 9 10 9 8 9 12 14 16 20 25 27 23 19 17 14 12 11 10 9 10 11 13 14 12 10 11 15 18 19 18 15 11 10 12 14 12 10
0 0 0 0 1 3 3 2 2 4 4 6 11 15 15 14 16 19 20 21 24 30 33 30 26 23 18 14 13 10 8 8 8 10 14 15 14 12 12 14 17 18 17 14 13 14 14 11 7
0 0 0 0 2 4 4 3 4 5 4 6 11 16 18 19 22 25 24 23 25 31 34 32 30 27 21 17 14 10 7 7 6 8 14 18 19 16 13 14 18 20 19 18 17 17 15 11 9
0 0 0 0 1 2 3 3 6 6 4 6 10 14 18 21 24 26 26 26 27 30 33 35 36 33 27 20 15 10 9 8 6 7 12 19 23 22 20 20 22 23 22 20 19 18 16 14 12
0 0 0 0 0 1 1 2 5 7 6 7 11 13 15 19 23 26 28 29 29 29 32 39 44 43 36 26 17 14 13 11 10 11 14 19 25 27 25 26 28 27 24 21 19 19 18 17 17
0 0 0 0 0 0 0 1 4 7 6 7 12 12 13 17 21 26 31 34 33 30 33 41 50 52 45 34 24 20 18 15 16 18 20 23 27 28 28 30 32 32 27 22 20 20 21 21 21
0 0 0 0 0 0 0 1 3 5 5 7 12 13 13 15 19 25 34 39 38 37 39 45 52 54 51 42 32 26 22 20 21 23 23 24 25 28 31 32 34 35 28 22 21 22 22 22 23
0 0 0 0 0 0 0 2 3 3 4 7 11 13 13 15 18 24 34 41 42 43 45 48 52 56 55 49 41 35 29 24 24 24 22 20 20 25 31 35 36 35 28 22 22 23 22 22 22
0 0 0 0 0 0 1 3 3 2 3 6 10 12 13 14 16 22 30 38 41 44 45 47 52 57 57 54 48 42 36 30 24 24 23 20 18 21 29 35 37 36 30 23 21 22 21 20 20
0 0 0 0 0 0 0 2 3 2 3 6 9 12 13 13 15 18 25 33 38 42 45 47 51 55 56 56 52 45 39 34 29 27 28 27 24 25 30 34 35 35 31 24 20 20 19 17 16
0 0 0 0 0 0 0 1 2 2 2 5 9 12 12 12 14 17 23 30 36 41 45 49 51 53 55 56 53 46 40 39 37 36 36 36 35 35 36 36 34 30 27 24 21 20 18 16 13
0 0 0 0 0 0 0 1 2 1 1 4 8 12 12 12 13 17 22 30 36 41 45 48 50 51 54 56 53 46 42 42 42 40 38 40 42 42 41 38 33 27 23 23 23 20 17 15 12

GEFSSGP_con_prob3kmehi_294.txt.gz
EHI
8 6 3 2 1 0 0 0 0 0 0 0 0 0 0 0 0 0 0 0 0 0 0 1 1 1 0 0 0 0 0 0 0 1 2 3 2 2 1 2 1 1 2 3 3 3 3 4 5
5 5 3 1 0 0 0 0 0 0 0 0 0 0 0 0 0 0 0 0 0 0 0 0 0 0 0 0 0 0 0 0 0 0 1 2 1 1 1 2 1 1 2 2 2 3 3 4 4
4 5 4 1 0 0 0 0 0 0 0 0 0 0 0 0 0 0 0 0 0 0 0 0 0 0 0 0 0 0 0 0 0 0 0 0 0 0 1 1 1 1 2 1 1 1 3 4 3
2 4 3 1 0 0 0 0 0 0 0 0 0 0 0 0 0 0 0 0 0 0 0 0 0 0 0 0 0 0 0 0 0 0 0 0 0 0 1 1 0 1 2 1 0 0 1 2 2
2 3 2 1 0 0 0 0 0 0 0 0 0 0 0 0 0 0 0 0 0 0 0 0 1 1 1 1 0 0 0 0 0 0 0 1 1 1 2 1 0 0 0 0 0 0 0 1 1
3 3 2 0 0 0 0 0 0 0 0 0 0 0 0 0 0 0 0 0 0 0 0 0 1 2 2 2 1 1 1 1 1 0 0 1 2 3 3 2 0 0 0 0 0 0 0 1 1
4 3 2 0 0 0 0 0 0 0 0 0 0 0 1 1 1 1 1 0 0 0 0 0 1 1 2 2 2 2 4 4 3 2 1 2 2 3 2 1 1 1 1 0 0 0 0 1 2
5 3 1 0 0 0 0 0 0 0 0 1 0 0 1 2 2 2 2 1 1 0 0 0 0 0 1 1 2 3 4 5 4 4 3 2 2 2 1 1 1 2 2 2 2 3 3 4 4
6 4 1 0 0 0 0 0 0 0 0 1 1 1 2 4 5 5 4 3 2 1 0 0 0 0 0 0 1 1 2 3 3 3 3 2 1 1 1 2 3 4 4 4 6 7 7 6 5
6 4 1 0 0 0 0 0 0 1 1 1 3 4 5 6 7 7 5 4 3 1 0 0 0 0 0 0 1 1 1 1 1 1 1 1 0 0 2 3 4 4 5 5 6 8 7 5 3
4 3 1 0 0 0 0 0 1 2 2 3 5 5 6 6 6 6 4 2 1 1 1 1 1 1 0 1 2 2 1 0 0 0 0 1 1 0 1 2 3 3 3 2 2 3 3 2 1
1 1 0 0 0 0 0 1 3 4 4 4 5 5 5 5 5 4 2 1 1 1 2 3 3 2 1 1 2 2 1 0 0 0 0 1 1 0 0 1 2 1 1 0 0 0 0 0 0
0 0 0 0 0 0 1 2 4 5 4 4 4 4 3 3 3 4 3 2 1 2 3 4 5 3 1 0 1 1 0 0 0 0 0 1 1 0 0 0 0 0 0 0 0 1 0 0 0
0 0 0 0 0 1 2 3 4 5 4 3 4 3 3 3 3 5 5 2 1 1 2 4 4 2 1 0 0 0 0 0 0 0 0 0 0 0 0 0 0 0 0 0 0 0 0 0 0
0 0 0 0 0 1 3 2 2 4 4 4 3 4 4 4 4 6 5 3 2 1 1 2 2 1 0 0 1 1 0 0 0 0 0 0 0 0 0 0 0 0 0 0 0 0 0 0 0
0 0 0 0 1 3 4 3 2 4 5 5 4 4 5 5 5 6 6 5 4 2 1 0 1 1 1 0 0 1 1 1 0 0 0 0 0 0 0 0 0 0 0 0 0 0 0 0 0
0 0 0 0 1 3 4 4 5 5 5 4 3 4 5 6 5 6 6 5 4 2 1 0 1 2 2 0 0 1 2 2 1 0 0 0 0 0 0 0 0 0 0 0 0 0 0 0 0
0 0 0 0 0 2 4 5 6 6 5 4 3 3 5 6 5 5 6 6 5 3 1 0 1 3 2 1 1 0 1 1 1 0 0 0 0 0 0 0 0 0 0 0 0 0 0 0 0
0 0 0 0 0 0 2 5 6 6 5 4 3 2 4 5 4 4 6 8 9 9 6 4 3 3 3 3 3 1 0 0 0 0 0 0 1 1 2 1 2 2 1 0 0 0 0 0 0
0 1 1 1 0 0 1 3 3 4 4 4 3 4 4 4 3 4 7 11 15 16 13 9 6 5 5 5 4 2 1 0 0 0 0 1 3 3 3 3 4 4 2 0 0 0 0 0 0
0 1 2 2 1 1 1 1 1 1 2 4 5 6 6 5 3 5 10 15 19 21 18 13 9 7 6 6 4 3 1 1 1 1 1 2 4 4 4 4 5 6 4 1 0 0 1 1 2
0 1 2 3 2 1 1 0 0 0 2 6 9 9 9 6 5 8 13 18 23 24 21 15 11 9 8 7 6 5 4 3 3 2 1 3 4 4 3 4 6 6 5 2 0 1 3 4 5
0 1 2 2 1 1 1 0 0 0 2 8 12 12 11 8 7 10 14 19 24 26 23 18 13 11 11 11 10 9 7 6 4 2 2 3 3 3 3 5 7 7 6 4 3 3 4 5 7
0 0 1 1 0 0 1 1 0 0 2 6 11 14 13 10 9 11 15 20 25 28 28 24 18 14 13 12 11 8 6 6 5 5 4 4 4 3 4 7 9 9 8 7 7 6 5 6 7
0 0 0 0 0 0 0 0 0 0 1 4 9 13 13 10 10 12 17 22 26 29 31 29 24 18 14 12 8 5 4 5 6 6 6 6 5 4 5 8 10 11 10 9 9 9 8 7 9
0 0 0 0 0 0 0 0 0 0 1 4 8 10 10 10 9 11 16 22 25 28 30 31 28 22 17 14 10 6 4 4 6 6 6 6 5 4 4 5 8 10 11 11 10 10 9 8 8
0 0 0 0 0 0 0 0 0 0 1 4 8 8 7 8 8 10 14 17 20 25 28 30 28 23 20 18 15 11 8 7 7 7 6 6 6 5 4 3 5 7 9 10 9 8 8 6 5
0 0 0 0 0 0 0 0 0 0 1 4 7 8 8 8 8 10 11 13 16 21 24 26 27 26 23 21 19 16 13 12 10 8 7 7 7 6 3 2 4 6 6 5 5 5 5 4 3
0 0 0 0 0 0 0 0 0 0 1 4 7 9 10 10 8 8 9 10 13 18 21 24 28 30 28 25 22 20 18 16 13 10 9 8 8 5 2 2 4 6 5 2 1 3 4 3 1
0 0 0 0 0 0 0 0 0 1 2 4 7 10 12 10 7 6 7 9 12 16 21 25 30 32 31 29 26 23 21 18 14 11 9 9 7 4 1 2 4 6 5 2 1 3 5 3 1

GEFSSGP_con_prob3kmehi_300.txt.gz
EHI
10 5 1 1 1 1 0 0 0 1 2 3 3 3 3 3 2 1 2 3 3 3 3 3 3 3 3 3 3 3 3 4 4 4 3 3 3 3 3 3 3 3 3 4 5 7 7 6 5
6 3 2 2 1 0 0 0 0 1 3 3 3 3 3 3 3 2 3 3 3 3 3 3 3 3 3 3 3 3 3 3 4 3 3 3 3 3 3 3 3 3 4 4 4 5 5 4 4
2 1 2 3 2 1 0 0 0 1 2 3 3 3 3 3 3 3 3 3 3 3 3 3 3 3 3 3 3 3 3 3 3 3 3 3 3 3 3 3 3 4 5 4 3 3 3 3 3
0 0 1 2 2 1 0 0 0 1 1 3 3 3 3 3 3 3 3 3 3 3 3 3 3 3 3 3 3 3 3 3 3 3 3 3 3 3 3 3 3 4 5 5 4 3 3 3 3
0 0 0 1 1 0 0 0 0 0 1 3 3 3 3 3 3 3 3 3 3 3 3 3 3 3 3 3 3 3 3 3 3 3 3 3 3 3 3 3 3 3 4 5 4 3 3 3 3
0 0 0 0 0 0 0 0 0 1 2 3 3 3 3 3 3 3 3 3 3 3 3 3 3 3 3 3 3 3 3 3 3 3 3 3 3 3 3 3 3 3 4 5 5 4 4 3 3
1 0 0 0 0 0 0 0 0 1 2 3 3 3 3 3 3 3 3 3 3 3 3 3 3 3 3 3 3 3 3 3 3 3 3 3 3 4 4 4 4 4 4 5 5 5 4 4 3
1 0 0 0 0 0 0 0 0 1 2 3 3 3 3 3 3 3 3 3 3 3 3 3 3 3 3 3 3 3 3 3 3 3 3 3 4 4 4 5 6 5 4 5 4 4 4 3 3
1 1 0 0 0 0 0 0 0 1 2 3 3 3 3 3 3 3 3 3 3 3 3 3 3 3 3 3 3 3 3 3 3 3 3 3 3 4 4 5 7 6 4 4 3 3 3 3 3
1 1 1 0 0 0 0 0 0 1 2 3 3 3 3 3 3 3 3 3 3 3 3 3 3 3 3 3 3 3 3 3 3 3 3 3 3 3 3 5 6 5 3 2 2 2 2 3 3
2 2 1 0 0 1 1 0 0 1 1 1 3 3 3 3 3 3 3 3 3 3 3 3 3 3 3 3 3 3 3 3 3 3 3 3 3 3 3 3 3 2 1 1 1 1 1 1 2
1 1 1 1 1 2 2 1 0 0 0 1 2 3 3 3 3 3 3 3 3 3 3 3 3 3 3 3 3 3 3 3 3 3 3 3 3 2 2 1 1 0 0 0 0 0 0 1 2
1 1 1 2 2 2 2 1 0 0 0 1 3 3 3 4 4 3 3 3 3 3 3 3 3 3 3 3 3 3 3 3 3 3 3 3 1 1 1 0 0 0 0 0 0 0 0 0 1
2 2 2 2 2 1 1 0 0 0 1 2 3 3 4 5 5 4 3 3 3 3 3 3 3 3 3 3 3 3 3 3 3 3 3 2 1 0 0 0 0 0 1 1 1 0 0 0 0
2 2 1 1 1 1 1 0 0 1 2 3 3 3 4 5 6 5 4 3 3 3 3 3 3 3 3 3 3 3 3 3 3 1 1 2 1 0 0 0 0 1 1 1 1 0 0 1 1
1 1 0 0 0 0 0 0 0 1 2 3 3 3 3 4 4 5 5 4 3 3 3 3 3 3 3 3 3 3 3 3 3 1 1 2 2 1 0 0 0 0 0 0 0 0 0 0 0
0 0 0 0 0 0 0 0 0 1 2 3 3 3 3 3 3 4 4 3 3 3 3 3 3 3 3 3 3 3 3 3 3 2 2 3 3 1 0 0 0 0 0 0 0 0 0 0 0
0 0 0 0 0 0 0 0 0 1 2 2 3 3 3 3 3 3 3 3 3 3 3 3 3 3 3 3 3 2 1 1 2 2 2 3 3 2 0 0 0 0 0 0 0 0 0 0 0
0 0 0 0 0 0 0 0 2 3 3 3 3 3 3 3 3 3 3 3 3 3 3 3 3 3 2 2 2 1 0 0 1 1 2 3 3 1 0 0 0 0 0 0 0 0 0 0 0
0 0 0 0 0 0 0 0 2 4 4 3 4 4 3 3 3 3 3 3 3 3 3 3 3 3 1 0 1 1 1 0 0 0 1 3 2 1 0 1 2 2 1 1 1 1 0 0 0
0 0 0 0 0 0 0 0 1 1 1 2 2 3 2 3 3 3 3 3 3 3 3 3 3 2 1 1 1 3 3 2 2 1 2 3 3 1 2 3 4 4 3 2 2 2 1 0 1
0 0 0 0 0 0 0 0 0 0 0 0 1 1 1 1 3 3 3 4 4 5 5 4 2 1 1 2 3 5 7 6 4 4 4 3 2 2 2 3 3 3 2 2 1 2 1 1 2
0 0 1 0 0 0 0 0 0 0 0 0 0 0 0 1 2 3 4 5 6 7 8 6 3 1 2 3 4 6 8 7 6 6 6 4 2 2 2 2 1 1 1 1 1 1 2 2 3
0 0 0 0 0 0 0 0 0 0 0 0 1 1 1 1 3 3 3 4 6 9 10 9 6 3 3 4 6 7 7 7 6 6 6 4 3 2 2 2 2 1 2 2 1 0 1 2 3
0 0 0 0 0 0 0 0 0 0 0 0 1 2 2 2 3 3 3 4 6 8 10 10 7 5 5 6 7 7 7 7 6 6 6 5 4 3 3 3 3 3 3 4 2 0 0 1 2
0 0 0 0 0 0 0 0 0 0 0 1 3 4 4 4 3 3 3 5 7 9 11 11 9 7 6 6 7 7 6 6 6 6 5 4 3 3 3 3 3 3 4 4 2 0 0 2 3
0 0 0 0 0 0 0 0 0 0 1 2 5 7 6 5 4 4 4 6 8 9 11 12 10 9 8 7 7 7 7 6 6 5 4 3 3 3 3 3 3 3 2 2 1 1 1 3 4
0 0 0 0 0 0 0 0 0 0 1 2 5 7 7 6 6 5 5 6 7 9 10 10 10 10 10 9 9 8 7 7 6 4 3 3 3 3 3 3 3 3 1 1 1 1 2 3 4
0 0 0 0 0 0 0 0 0 0 0 2 3 5 6 6 6 7 7 8 8 9 10 9 10 11 12 12 11 10 9 7 5 4 3 3 4 4 4 4 4 3 1 0 0 1 1 2 2
0 0 0 0 0 0 0 0 0 0 1 2 3 5 6 6 6 7 10 10 9 9 10 10 11 12 14 14 13 11 9 7 5 4 3 4 5 5 5 5 5 3 1 0 0 0 1 1 1

GEFSSGP_con_prob3kmehi_306.txt.gz
EHI
6 4 4 6 6 2 0 0 0 0 0 0 0 0 0 0 0 0 0 0 0 0 0 0 0 0 0 0 0 0 0 1 2 2 1 0 0 1 2 3 3 2 1 0 1 2 2 2 1
7 6 6 6 4 1 0 0 0 0 0 0 0 0 0 0 0 0 0 0 0 0 0 0 0 0 0 0 0 0 0 0 1 1 0 0 1 2 3 4 3 1 0 0 0 1 1 1 0
8 7 6 5 2 0 0 0 0 0 0 0 0 0 0 0 0 0 0 0 0 0 0 0 0 0 0 0 0 0 0 0 0 0 0 0 1 3 4 4 3 1 0 0 0 0 0 0 0
7 6 5 2 0 0 0 0 0 0 0 0 0 0 0 0 0 0 0 0 0 0 0 0 0 0 0 0 0 0 0 0 0 0 0 0 1 3 4 4 3 2 1 0 0 0 0 0 0
5 5 3 1 0 0 0 0 0 0 0 0 0 0 0 0 0 0 0 0 0 0 0 0 0 0 0 0 0 0 0 0 0 0 0 0 1 2 3 2 2 2 1 0 0 0 0 0 0
6 4 1 0 0 0 0 0 0 0 0 0 0 0 0 0 0 0 0 0 0 0 0 0 0 0 0 0 0 0 0 0 0 0 0 0 1 1 1 1 1 1 0 0 0 0 0 0 0
4 3 1 0 0 0 0 0 0 0 0 0 0 0 0 0 0 0 0 0 0 0 0 0 0 0 0 1 0 0 0 0 0 1 0 0 1 2 2 2 1 0 1 1 1 0 0 0 0
2 2 1 0 0 0 0 0 0 0 0 0 0 0 0 0 0 0 0 0 0 0 0 0 0 0 0 0 0 0 0 0 0 1 1 1 1 3 3 3 2 1 1 1 1 0 0 0 1
2 2 1 0 0 0 0 0 0 0 0 0 0 0 1 1 1 0 0 0 0 0 0 0 0 0 0 0 0 0 0 0 0 1 1 2 3 3 3 2 2 2 1 0 0 0 0 0 1
2 1 0 0 0 1 1 1 0 0 0 0 0 1 2 2 1 1 0 0 0 0 0 0 0 0 0 0 0 0 0 0 0 0 1 1 3 3 2 1 1 1 1 0 0 0 0 0 1
1 0 0 0 1 2 2 1 1 1 1 0 1 3 4 3 2 2 1 1 2 1 1 0 0 0 0 0 0 0 0 0 0 0 0 0 1 1 1 1 1 0 0 0 0 0 0 0 0
0 0 0 0 1 2 1 1 1 1 2 1 3 6 6 4 3 3 2 2 2 2 1 0 0 0 0 0 0 0 0 0 0 0 0 0 0 0 1 2 1 0 0 0 0 0 0 0 0
0 0 0 0 1 1 1 1 1 1 1 1 4 7 7 4 2 2 2 1 1 1 1 0 0 0 0 0 0 0 0 0 0 0 0 0 0 0 0 1 0 0 0 0 0 0 0 0 0
0 0 0 0 1 1 2 3 2 1 0 1 4 6 5 2 1 1 1 0 0 0 0 0 0 0 0 0 0 0 0 0 0 0 0 0 0 0 0 0 0 0 0 0 0 0 0 0 0
0 0 0 0 1 2 3 3 2 0 0 1 2 4 4 2 0 0 0 0 0 0 0 0 0 0 0 0 0 0 0 0 0 0 0 0 0 0 0 0 1 1 0 0 1 1 0 0 0
0 0 0 0 1 1 2 2 2 1 0 0 1 3 4 2 0 0 0 0 0 0 1 1 0 0 1 1 1 1 0 0 0 0 0 0 0 0 0 0 1 1 0 0 1 1 0 0 0
0 0 0 0 0 0 0 1 2 2 0 0 1 3 3 1 0 0 0 0 0 1 2 2 2 1 2 2 2 1 0 0 0 0 0 0 0 0 0 0 1 1 0 0 1 1 0 0 0
0 0 0 0 0 0 0 1 3 4 2 1 2 3 3 1 0 0 0 0 0 1 3 4 4 4 3 2 2 1 0 0 0 0 0 0 0 1 1 0 0 1 0 0 0 0 0 1 1
0 0 0 0 0 0 0 0 2 5 4 3 4 5 3 1 1 1 1 1 1 2 5 6 6 6 4 3 2 2 1 1 0 0 0 0 1 2 2 2 1 1 1 1 1 0 1 2 2
0 0 0 0 0 0 0 0 2 4 5 5 6 6 4 2 1 1 2 3 4 5 8 9 8 8 6 5 5 4 3 2 0 0 0 0 1 2 3 3 3 2 2 2 2 2 3 3 4
0 0 0 0 0 0 0 1 2 3 4 5 6 6 4 1 0 2 4 5 5 6 9 11 11 11 10 9 8 7 6 2 0 0 1 1 1 1 2 3 3 3 3 3 4 5 6 6 5
0 0 0 0 0 0 0 1 2 2 3 5 6 7 5 2 1 3 5 6 5 5 6 10 13 14 13 12 12 10 6 2 0 1 2 2 1 1 2 3 3 4 4 4 5 8 9 9 7
0 0 0 0 0 0 0 1 1 1 1 3 6 7 7 4 2 3 5 5 4 3 3 7 13 16 15 15 14 10 6 3 2 3 4 3 3 2 2 3 5 5 5 6 8 10 11 10 10
0 0 0 0 0 0 0 0 0 0 0 1 4 6 6 6 5 5 6 7 6 3 3 8 14 17 16 15 12 9 7 6 6 6 5 4 3 3 4 5 7 8 8 8 11 11 11 10 11
0 0 0 0 0 0 0 0 0 0 0 1 3 5 5 6 8 10 11 12 11 8 7 12 18 19 16 14 11 9 9 10 9 8 7 6 4 4 6 7 9 10 11 11 12 11 10 10 11
0 0 0 0 0 0 0 0 0 0 0 1 3 4 4 5 9 13 14 15 14 12 11 15 19 20 17 15 14 13 12 12 10 9 8 7 5 5 6 7 9 13 14 13 12 11 11 11 11
0 0 0 0 0 0 0 0 0 0 0 1 2 2 3 6 9 11 12 13 13 13 13 15 18 20 18 17 16 14 13 11 9 8 7 7 6 5 5 7 10 13 14 13 12 12 12 11 11
0 0 0 0 0 0 0 0 1 0 0 2 2 2 3 6 8 9 10 11 12 12 13 15 17 17 17 15 14 12 11 10 9 8 7 7 6 6 6 7 10 13 13 12 12 11 11 11 10
0 0 0 0 0 0 0 0 0 0 0 1 3 3 4 6 8 9 11 13 14 13 12 13 14 14 13 13 11 10 10 11 10 10 10 9 8 7 7 9 11 13 13 13 12 11 10 10 10
0 0 0 0 0 0 0 0 0 0 0 1 3 4 6 8 10 12 14 15 15 13 11 12 13 13 12 12 12 11 11 12 12 12 12 11 10 9 9 10 13 14 14 14 14 12 10 10 10

GEFSSGP_con_prob3kmehi_312.txt.gz
EHI
0 4 13 21 18 7 1 0 0 0 0 0 0 0 0 0 0 0 0 0 0 0 0 0 0 0 0 0 0 0 0 1 0 0 0 0 0 0 0 0 0 1 3 4 4 4 3 2 1
3 8 17 20 13 4 0 0 0 0 0 0 0 0 0 0 0 0 0 0 0 0 0 0 0 0 0 0 0 0 0 1 0 0 0 0 0 0 0 0 0 1 3 4 3 3 2 1 1
7 15 18 14 6 1 0 0 0 0 0 0 0 0 0 0 0 0 0 0 0 1 1 0 0 0 0 0 0 0 0 0 0 0 0 0 0 0 0 0 0 1 3 4 3 2 1 0 0
13 16 14 7 2 0 0 0 0 0 0 0 0 0 0 0 0 0 0 0 1 1 1 1 1 0 0 0 0 0 0 0 0 0 0 0 0 1 1 1 1 1 2 4 3 3 2 1 1
15 14 9 3 0 0 0 0 0 0 0 0 0 0 0 0 0 0 0 0 1 2 2 2 1 0 0 0 1 1 1 0 0 0 0 0 1 2 3 3 3 2 3 4 4 5 4 3 2
13 11 5 1 0 0 0 0 0 0 0 0 0 0 0 0 0 0 0 0 1 1 1 1 1 1 1 1 2 2 1 0 0 1 1 1 3 6 7 6 4 3 2 3 5 5 4 3 3
12 9 4 1 0 0 0 0 0 0 0 0 0 0 1 1 2 1 0 0 0 0 0 0 1 2 3 2 2 2 2 1 1 2 3 3 5 8 9 8 5 3 2 3 5 5 4 4 4
9 7 4 1 0 0 0 0 0 0 0 0 1 1 2 3 3 2 0 0 0 1 1 1 0 1 2 2 2 2 2 1 2 4 5 6 7 9 9 7 5 4 4 5 6 6 6 7 9
5 4 2 1 0 0 0 0 0 1 1 1 2 3 3 4 4 2 2 1 2 3 3 2 1 0 0 1 2 2 1 1 3 6 6 7 8 8 7 5 4 5 6 7 7 8 9 10 11
2 2 1 0 0 0 1 1 1 2 3 4 5 4 4 5 5 4 3 4 5 5 3 2 1 0 0 1 1 1 1 1 3 5 5 5 5 4 3 3 4 5 6 7 9 11 11 10 8
0 0 0 0 0 1 2 2 3 3 4 7 7 4 3 4 5 5 4 4 5 4 2 1 1 0 0 1 1 1 1 3 3 4 4 3 3 2 1 1 3 6 8 9 11 12 10 8 7
0 0 0 0 1 2 3 3 3 3 4 7 7 4 1 1 3 4 3 2 2 2 2 2 3 2 1 2 2 1 1 3 4 5 4 3 3 2 2 2 4 7 9 11 12 12 10 8 8
0 0 0 1 2 3 3 3 3 2 3 5 5 3 0 0 2 3 3 2 2 2 3 4 5 5 4 5 5 2 2 3 4 5 5 4 2 2 3 4 4 6 9 10 11 11 11 10 10
0 0 0 1 2 3 3 2 1 1 2 4 5 3 1 1 3 5 6 5 4 4 4 4 5 7 7 6 4 2 2 3 4 5 6 4 4 5 7 6 5 6 7 8 9 8 8 10 10
0 0 0 1 2 2 2 2 1 0 1 5 6 4 3 3 6 8 9 8 7 7 6 5 5 7 8 6 3 2 1 2 5 8 9 7 7 10 10 8 7 7 7 8 8 6 5 6 6
0 0 0 0 1 2 3 2 2 1 2 5 6 5 5 6 8 11 12 10 10 10 10 8 7 9 10 9 6 4 2 2 6 10 12 10 9 11 11 10 9 9 9 8 7 6 5 3 2
0 0 0 0 0 1 2 3 2 1 2 6 7 7 7 7 9 13 13 12 13 15 14 12 11 12 12 12 11 7 4 4 6 9 9 9 10 11 11 10 10 10 10 9 8 7 6 6 5
0 0 0 0 0 1 2 3 4 3 3 7 10 11 10 8 10 12 13 13 16 20 20 16 14 15 15 14 13 10 7 6 7 7 7 8 9 10 9 9 10 10 10 10 9 9 9 10 10
0 0 0 0 0 2 2 3 4 4 4 7 13 17 15 12 13 15 16 16 21 27 28 24 20 20 20 18 16 14 11 9 7 7 8 10 10 9 7 8 9 9 10 11 11 11 11 12 13
0 0 0 0 0 1 2 2 3 4 4 6 13 19 19 17 18 21 21 21 27 34 34 31 29 27 23 20 18 16 15 12 8 9 14 16 14 12 10 11 11 10 10 12 13 13 12 12 12
0 0 0 0 0 1 2 2 3 4 5 6 12 18 20 19 23 27 28 27 31 37 37 37 36 32 26 22 18 16 17 14 10 12 17 19 18 17 16 17 16 13 12 13 15 15 13 12 11
0 0 0 0 0 1 2 3 4 5 6 8 11 15 18 20 26 32 35 33 32 35 38 42 43 38 30 23 18 16 15 12 10 13 17 19 19 19 20 20 20 17 13 12 14 14 13 12 11
0 0 0 0 0 0 1 2 3 6 8 9 10 12 15 19 26 33 37 36 33 32 38 45 48 44 35 25 21 18 14 11 10 12 16 19 20 20 21 20 20 17 12 10 11 12 12 12 12
0 0 0 0 0 0 0 1 2 5 8 9 9 10 11 14 21 29 35 38 34 32 38 46 52 49 39 29 24 21 18 15 13 14 16 16 18 20 22 20 19 15 12 11 10 10 11 11 11
0 0 0 0 0 0 0 1 3 4 5 7 9 10 10 10 16 25 34 39 37 36 41 50 53 49 42 33 27 24 22 19 17 16 15 13 14 19 23 22 19 15 12 12 12 11 10 11 11
0 0 0 0 0 0 0 2 3 2 3 6 8 9 9 10 14 23 33 40 41 41 45 51 52 48 40 34 29 26 23 19 17 16 15 12 11 16 23 24 21 16 13 12 13 12 11 11 13
0 0 0 0 0 0 1 2 3 1 2 5 7 7 8 11 15 21 29 37 42 45 48 50 52 47 38 31 28 27 23 20 17 17 16 14 13 17 22 23 21 18 15 15 13 13 13 13 13
0 0 0 0 1 0 1 2 2 1 2 5 8 9 9 10 14 21 27 34 40 45 48 49 50 46 35 27 25 24 24 24 22 21 19 18 19 23 24 23 20 17 17 17 15 13 13 14 13
0 0 0 0 1 0 0 1 1 0 3 7 12 13 12 11 14 19 25 31 36 42 46 48 47 42 32 25 23 22 24 26 26 24 23 24 27 30 31 27 21 18 18 19 17 13 13 13 14
0 0 0 1 1 1 1 1 1 0 3 9 14 16 15 14 15 18 22 28 32 37 44 48 46 39 31 26 24 22 23 25 25 25 26 30 33 35 34 30 24 20 19 19 17 14 12 13 14

GEFSSGP_con_prob3kmehi_318.txt.gz
EHI
1 1 0 1 0 0 0 0 0 0 0 0 0 0 0 0 0 0 0 1 1 1 0 0 0 0 0 0 0 0 0 0 0 0 1 1 1 3 5 6 9 8 4 2 2 3 4 4 3
1 0 0 1 0 0 0 0 0 0 0 0 0 0 0 0 0 0 0 0 0 0 0 0 0 0 0 0 0 0 0 0 0 1 2 3 3 4 5 6 9 9 5 3 2 3 3 4 4
0 0 0 0 0 0 0 0 1 0 0 0 0 0 0 0 0 0 0 0 0 0 1 1 1 0 0 0 0 0 0 0 0 1 3 4 5 5 5 7 10 10 7 4 3 3 3 3 4
1 0 0 0 0 0 0 0 0 0 0 0 0 0 0 0 0 1 0 0 0 0 1 2 2 1 0 0 1 0 0 0 0 0 2 4 5 5 6 8 9 9 7 5 4 5 4 2 2
4 2 1 0 0 0 0 0 0 0 0 0 0 0 0 0 0 0 0 0 0 0 0 1 1 1 0 1 1 0 0 0 0 0 1 2 4 5 6 8 9 7 6 5 5 6 5 2 1
7 5 2 0 0 0 0 0 0 1 0 0 0 0 0 0 0 0 0 0 0 0 0 0 0 0 0 1 0 0 0 1 2 1 2 3 3 5 6 7 8 7 5 5 6 7 5 3 1
8 6 3 1 0 0 0 0 0 0 0 0 0 0 0 0 0 0 0 0 0 0 0 0 0 0 0 1 1 1 0 1 2 2 2 3 4 4 5 5 6 7 6 6 7 7 6 4 2
7 5 2 1 0 0 1 1 1 1 1 1 1 0 0 1 1 2 1 1 1 0 0 0 0 0 0 0 2 2 2 2 2 3 3 3 3 2 2 3 5 7 6 5 7 8 8 7 5
6 3 1 0 0 1 2 2 3 3 3 3 2 1 1 3 3 3 2 2 1 0 0 0 0 0 0 0 1 3 3 2 2 3 4 3 1 0 0 1 4 6 5 5 7 9 10 10 8
3 1 0 0 0 1 3 4 4 5 5 4 3 2 2 3 3 2 1 1 1 0 0 0 0 0 0 0 0 1 1 1 1 1 2 1 0 0 0 1 3 5 4 5 7 7 8 8 7
1 0 1 1 1 2 3 4 5 5 5 5 3 2 2 1 1 1 0 0 0 0 0 0 0 0 0 0 0 0 0 0 0 0 0 0 0 0 0 1 3 3 3 3 4 4 4 5 5
0 1 2 2 3 3 3 3 3 4 4 4 3 3 2 1 1 1 1 0 1 1 0 0 0 0 0 0 0 0 0 0 0 0 0 0 0 0 0 1 2 2 1 1 1 1 1 3 4
0 1 3 3 3 3 2 2 2 3 3 3 3 4 3 2 1 2 2 2 2 1 0 0 0 0 0 0 0 0 0 0 0 0 0 0 0 0 1 1 1 1 0 0 0 1 1 3 4
1 2 3 3 2 1 1 1 2 4 4 3 3 4 4 2 2 3 4 3 2 1 0 1 1 0 0 1 2 1 0 0 1 0 0 1 1 2 1 1 0 0 0 1 1 2 3 3 3
2 2 2 1 1 0 0 1 2 4 6 4 3 3 3 3 3 5 5 4 2 1 1 2 2 1 1 3 4 3 1 0 0 0 1 2 3 3 2 2 1 1 1 1 2 3 3 2 2
1 1 1 0 0 0 0 1 2 4 6 5 4 3 3 3 4 5 5 4 2 1 2 3 3 2 2 3 4 3 1 0 0 0 1 2 3 3 4 3 3 3 2 1 1 2 2 1 1
0 0 0 0 0 0 0 0 1 3 5 4 3 3 3 4 4 5 5 5 4 4 4 4 4 4 4 4 4 3 1 0 0 0 1 2 3 4 4 5 5 5 3 2 1 1 2 2 1
0 0 0 0 0 0 0 0 1 3 4 4 3 3 3 4 5 6 7 8 9 9 7 6 6 7 7 6 5 3 1 0 0 0 1 2 3 3 4 4 5 5 4 3 2 2 3 2 2
0 0 0 0 0 0 0 0 1 3 5 6 5 4 5 6 7 9 12 14 14 14 12 10 10 9 8 8 6 4 1 0 0 0 1 2 3 3 3 3 4 3 3 3 4 4 3 2 2
0 0 0 1 1 1 1 0 1 3 6 7 6 5 6 7 9 13 16 18 19 18 15 13 11 9 8 7 6 5 3 1 1 1 1 2 3 3 3 3 3 2 2 4 6 6 5 4 4
0 0 1 2 2 2 1 0 0 3 7 8 7 7 7 8 12 16 19 21 22 19 15 13 10 8 7 6 6 6 5 4 2 1 1 1 3 3 3 3 2 1 1 3 6 8 8 7 7
0 0 1 1 1 1 1 0 1 4 8 9 9 10 10 11 13 16 20 24 25 22 17 13 11 10 8 8 7 7 6 5 3 1 1 2 3 4 4 3 2 1 1 3 6 8 10 9 8
0 0 0 0 0 0 0 0 2 5 8 9 9 11 12 13 15 17 20 24 26 25 22 18 14 12 11 10 9 7 6 5 3 2 3 5 6 5 5 4 4 3 3 4 6 8 9 9 9
0 0 0 0 0 0 0 1 2 4 6 6 6 9 12 14 16 19 21 23 25 29 28 23 18 14 14 13 11 9 8 7 5 5 6 8 7 6 6 5 5 6 6 5 6 7 9 9 9
0 0 0 0 0 0 0 1 2 2 3 5 6 8 11 13 16 20 23 25 28 30 31 29 24 18 15 14 13 11 10 9 7 7 7 8 7 6 5 5 5 6 7 6 6 7 8 8 8
0 0 0 0 0 0 0 1 1 1 2 5 7 9 11 13 16 20 23 27 30 32 32 32 28 21 16 14 14 13 11 10 9 7 8 8 7 6 5 5 5 5 6 6 6 7 7 7 7
0 0 0 0 0 0 0 0 0 1 4 9 11 12 12 14 16 18 20 24 30 34 34 31 29 23 17 13 12 12 11 10 9 8 7 7 7 6 5 6 6 5 5 6 7 6 6 6 6
0 0 0 0 0 0 0 0 0 2 8 15 18 17 15 14 14 14 16 21 28 34 33 31 28 23 17 12 10 9 9 10 9 8 8 7 7 7 7 6 5 4 4 6 7 6 4 4 4
0 0 0 0 0 0 0 0 1 4 11 18 21 18 14 11 10 10 13 19 27 32 32 30 26 22 18 14 10 8 8 9 10 9 10 10 9 9 8 4 2 2 2 4 4 4 3 3 3
0 0 0 0 0 0 0 0 1 5 11 17 19 15 11 8 8 9 12 19 26 30 32 30 26 22 20 16 11 8 8 9 10 11 11 12 12 10 8 4 1 1 1 1 3 3 3 3 3

GEFSSGP_con_prob3kmehi_324.txt.gz
EHI
3 1 0 0 0 0 0 0 0 0 0 0 0 0 0 0 0 0 0 0 0 0 0 0 0 0 0 0 0 0 0 0 0 1 1 1 0 0 0 1 2 2 1 0 0 0 0 0 0
1 0 0 0 0 0 0 0 0 0 0 0 0 0 0 0 0 0 0 0 0 0 0 0 0 0 0 0 0 0 0 0 0 0 0 1 1 1 1 1 1 1 1 0 0 0 0 0 0
0 0 0 0 0 0 0 0 0 0 0 0 0 0 0 0 0 0 0 0 0 0 0 0 0 0 0 0 0 0 0 0 0 0 1 1 2 2 2 2 1 1 0 0 0 0 0 0 0
0 0 0 0 0 0 0 0 0 0 0 0 0 0 0 0 0 0 0 0 0 0 0 0 0 0 1 1 0 0 0 0 0 1 2 2 2 3 3 3 2 1 1 1 0 0 0 0 0
1 0 0 0 0 0 1 1 0 0 0 0 0 0 0 0 1 1 1 0 0 0 0 0 0 1 3 3 1 0 0 0 0 1 2 2 1 2 3 2 2 2 3 3 1 0 0 0 0
2 1 0 0 0 0 1 2 1 0 0 0 0 0 0 0 1 1 1 0 0 0 0 0 0 1 4 3 1 0 0 0 0 0 1 1 1 2 2 2 2 4 5 4 1 0 0 0 0
2 1 1 0 0 0 1 1 1 0 0 0 0 1 1 0 0 0 0 0 0 0 0 0 0 1 2 1 1 2 1 0 0 1 1 1 2 2 3 3 4 5 4 3 1 0 0 0 1
2 1 0 0 0 0 0 0 0 0 0 0 0 1 2 1 0 0 0 0 0 0 0 0 0 0 0 1 1 2 1 1 1 1 1 1 2 2 3 4 4 3 2 2 2 1 1 1 2
2 1 0 0 0 0 1 1 1 0 0 0 0 1 2 1 0 0 0 0 0 0 0 0 0 0 0 0 1 1 1 0 0 1 1 1 1 1 1 1 1 1 1 2 3 3 2 2 3
2 1 0 0 0 1 2 2 2 1 1 0 0 1 2 1 0 0 0 0 0 0 0 0 0 0 0 0 0 0 0 0 0 0 0 0 0 0 0 0 0 0 1 2 2 3 3 1 1
1 0 0 0 0 1 2 2 2 2 2 1 1 2 2 1 0 0 0 0 0 0 0 0 0 0 0 0 0 0 0 0 0 0 0 0 0 0 0 0 1 0 0 1 1 1 1 0 0
0 0 0 0 0 0 1 1 1 2 2 2 2 3 2 1 0 0 0 0 0 0 0 0 0 0 0 0 0 0 0 0 0 0 0 0 0 0 0 0 0 0 0 0 0 0 0 0 0
0 0 0 0 0 0 0 0 0 1 2 3 3 2 1 0 0 0 0 0 0 0 0 0 0 0 0 0 0 0 0 0 0 0 0 0 0 0 0 0 0 0 0 0 0 0 0 0 0
0 0 0 0 0 0 0 0 0 1 3 4 3 1 0 0 0 0 0 0 0 0 0 0 0 0 1 0 0 0 0 0 0 0 0 0 0 0 0 0 0 0 0 0 0 0 0 0 1
0 0 0 0 0 0 0 0 1 3 5 5 2 0 0 0 0 0 0 0 0 0 0 0 1 1 1 0 0 0 0 0 0 0 0 0 0 0 0 0 0 0 0 0 0 0 0 0 1
0 0 0 0 0 0 0 0 1 4 6 5 2 0 0 0 0 0 0 0 0 0 0 1 2 2 1 0 0 0 0 0 0 0 0 0 0 0 0 0 1 1 1 0 0 0 0 0 1
0 0 0 0 0 0 0 0 2 5 6 5 2 0 0 0 0 0 0 0 0 0 0 1 2 2 1 0 0 0 0 0 0 0 0 0 0 0 0 1 2 2 1 0 0 0 0 0 0
0 0 0 0 0 0 0 0 1 4 5 4 2 0 0 0 0 0 0 0 0 0 1 2 2 1 0 0 0 0 0 0 0 0 0 0 0 0 0 1 2 2 1 0 0 0 0 0 0
0 0 0 0 0 0 0 0 0 2 3 3 1 0 0 0 0 0 0 0 0 0 1 2 1 0 0 0 0 0 0 0 0 0 0 0 0 0 0 0 1 1 0 0 0 1 1 0 1
0 0 0 0 0 0 0 0 0 1 2 2 2 1 1 2 1 0 0 0 0 1 1 1 0 0 0 1 1 1 0 0 0 0 0 0 0 0 0 0 0 0 0 0 0 1 2 2 2
0 0 0 0 0 0 0 0 0 0 1 2 3 3 2 3 3 1 1 2 1 1 1 1 0 0 1 2 3 3 2 2 2 2 1 0 0 0 0 0 0 0 0 0 0 1 3 4 4
0 0 0 0 0 0 0 0 0 0 1 1 2 3 3 3 3 2 2 3 3 2 1 0 0 0 1 3 5 5 5 5 4 4 4 2 0 0 0 0 0 0 0 0 0 0 2 5 5
0 0 0 0 0 0 0 0 0 0 0 0 1 2 3 3 3 3 3 3 3 3 1 0 0 0 1 4 6 6 6 6 6 6 6 4 2 0 0 0 0 0 0 0 0 0 2 4 5
0 0 0 0 0 0 0 0 0 0 1 1 2 3 3 3 4 4 4 3 3 3 1 0 0 0 2 5 6 6 6 6 7 8 8 7 4 2 0 1 1 1 1 0 0 0 1 3 4
0 0 0 0 0 0 0 0 0 0 1 2 3 4 4 4 5 6 5 4 5 5 4 3 2 2 3 5 6 6 6 6 7 8 8 7 5 3 2 2 2 2 1 0 0 0 1 2 3
0 0 0 0 0 0 0 0 0 0 1 3 4 5 6 6 6 6 5 5 7 10 11 9 6 6 7 7 6 5 4 5 6 5 4 3 3 3 3 3 3 2 1 1 1 0 0 1 2
0 0 0 0 0 0 0 0 0 1 2 5 6 8 9 8 8 7 5 4 7 14 16 13 9 8 9 9 7 6 5 4 5 3 1 1 1 3 3 3 2 1 1 1 1 0 0 0 1
0 0 0 0 0 0 0 0 0 1 3 5 7 9 10 9 9 8 5 4 7 13 15 13 11 9 9 10 9 7 5 5 4 3 1 0 1 2 3 3 1 0 0 1 1 0 0 0 0
0 0 0 0 0 0 0 0 0 1 3 5 7 9 9 9 8 7 5 3 6 11 13 13 11 10 10 9 8 6 3 3 4 4 3 2 2 2 4 3 1 1 1 0 0 0 0 0 0
0 0 0 0 0 0 0 0 0 1 3 5 6 9 9 8 7 5 3 2 5 11 13 12 11 11 10 9 8 4 1 2 4 6 6 5 4 3 3 3 2 2 2 1 0 0 0 0 0

GEFSSGP_con_prob3kmehi_330.txt.gz
EHI
1 1 1 3 3 1 0 0 0 0 0 0 0 0 0 0 0 0 0 0 0 0 0 0 0 0 0 0 0 1 2 4 4 3 3 2 1 0 0 0 1 2 2 1 0 1 1 1 0
1 1 2 3 2 0 0 0 0 0 0 0 0 0 0 0 0 0 0 0 0 0 0 0 0 0 0 0 0 0 1 2 3 3 3 2 1 0 0 0 0 1 1 0 0 0 1 1 1
2 3 4 3 1 0 0 0 0 0 0 0 0 0 0 0 0 0 0 0 0 0 0 0 0 0 0 0 0 0 0 1 1 2 3 3 2 1 0 0 0 0 0 0 0 0 0 0 0
4 5 4 1 0 0 0 0 0 0 0 0 0 0 0 0 0 0 0 0 0 0 0 1 1 1 0 0 0 0 0 0 0 1 3 3 3 3 2 0 0 0 0 0 0 0 0 0 0
6 5 3 1 0 0 0 0 0 0 0 0 0 0 0 0 0 0 0 0 0 0 0 1 2 1 1 1 1 0 0 0 0 1 2 3 4 4 2 0 0 0 0 0 0 0 0 0 0
7 5 2 0 0 0 0 0 0 0 0 0 0 0 0 0 0 0 0 0 0 0 0 1 1 1 2 2 2 1 0 0 0 1 1 2 3 3 2 0 0 0 0 0 1 1 1 1 0
6 4 1 0 0 0 0 0 0 0 0 0 0 0 0 0 0 0 0 0 0 0 0 0 0 1 2 3 2 1 1 1 1 1 0 1 1 1 1 1 0 0 0 0 0 1 2 1 0
5 3 1 0 0 0 0 0 0 0 0 0 0 0 0 0 0 0 0 0 0 0 0 0 0 0 1 1 2 2 2 2 1 0 0 0 0 1 1 1 0 0 0 0 0 1 2 1 0
5 2 0 0 0 0 0 0 0 0 0 0 0 0 1 2 1 1 0 0 0 0 0 0 0 0 0 0 1 1 2 2 1 0 0 0 0 0 0 0 1 1 0 0 0 1 2 1 0
3 1 0 0 0 0 0 0 0 0 0 0 1 1 1 3 3 2 1 0 0 0 0 0 0 0 0 0 0 0 1 1 0 0 0 1 1 0 0 0 1 1 0 0 0 1 2 2 1
1 0 0 0 0 0 0 0 0 0 0 1 2 2 1 1 2 2 1 0 0 0 0 0 0 0 0 0 0 0 0 0 0 0 0 1 1 0 0 0 1 1 1 1 0 0 1 1 0
0 0 0 0 0 0 0 0 0 0 1 2 2 1 0 0 1 1 0 0 0 0 0 0 0 1 1 1 0 0 1 0 0 0 0 0 0 0 0 0 1 2 2 1 0 0 0 0 0
0 0 0 0 0 0 0 0 0 0 1 1 1 0 0 0 0 0 0 0 0 0 0 0 1 2 2 2 1 0 0 0 0 0 0 0 0 0 0 0 1 1 1 1 0 0 0 0 0
0 0 0 0 0 0 0 0 0 0 0 0 0 0 0 0 0 0 0 0 0 0 0 1 2 3 3 2 1 0 0 0 0 1 1 1 0 0 0 0 0 0 0 0 0 0 1 1 1
0 0 0 0 0 0 0 0 0 0 0 0 0 0 0 0 0 0 0 0 0 0 1 2 3 3 3 1 0 0 0 0 0 1 2 2 1 0 0 0 0 0 0 0 0 0 1 2 2
0 0 1 1 1 0 0 0 0 0 0 0 1 2 1 1 1 1 0 0 0 2 3 3 3 3 2 1 0 1 1 1 1 1 2 2 1 0 0 0 0 0 0 0 0 0 1 1 1
0 0 1 2 2 2 1 1 1 1 0 1 2 3 3 2 2 1 0 0 1 3 4 4 3 3 1 0 1 2 2 2 2 2 2 1 1 1 1 1 0 0 0 0 0 0 0 0 1
0 0 0 1 3 4 3 3 3 2 2 1 2 3 4 3 1 0 0 1 2 4 4 3 3 2 1 0 1 2 3 3 3 3 1 1 2 2 1 1 0 0 0 0 0 0 0 1 1
0 0 0 1 4 5 4 4 4 4 3 2 2 4 5 4 2 0 1 3 5 6 5 4 3 1 0 0 1 2 2 3 3 3 2 2 3 3 2 0 0 0 1 1 1 1 1 2 2
0 0 0 1 3 4 3 3 2 2 2 1 2 3 4 5 3 2 2 4 7 8 7 6 4 2 0 1 2 3 4 4 3 3 3 3 4 3 2 0 0 0 2 3 3 3 3 2 1
0 0 0 1 2 2 2 2 1 1 1 1 2 3 3 4 5 4 4 4 6 7 7 7 5 3 2 2 3 4 5 4 2 2 3 4 4 4 3 1 0 0 1 2 3 4 3 2 1
0 0 0 0 1 1 2 3 2 1 0 1 2 3 3 4 4 4 5 6 5 6 7 7 6 5 4 4 4 4 3 2 0 0 2 3 4 5 5 3 2 1 1 0 1 2 2 2 2
0 0 0 0 0 0 1 2 2 1 0 1 3 3 4 4 3 2 4 5 6 8 9 10 10 10 9 8 7 6 4 2 1 1 2 3 4 5 6 5 5 3 2 2 2 2 1 1 2
0 0 0 0 0 0 1 1 1 1 1 2 3 3 4 4 3 1 2 3 5 9 12 13 15 18 15 12 10 8 6 5 5 4 4 4 4 5 5 5 6 5 4 5 6 5 3 3 3
0 0 0 0 0 0 0 0 1 1 1 3 4 4 4 5 5 4 3 2 5 10 13 14 17 20 18 13 10 8 6 7 8 7 5 5 3 3 4 5 6 6 6 8 9 8 7 7 6
0 0 0 0 0 0 0 0 0 1 1 3 4 5 6 7 8 8 6 4 4 9 14 16 17 19 18 13 10 8 6 7 7 6 5 5 3 3 4 5 6 7 8 10 10 10 10 10 10
0 0 0 0 0 0 0 0 0 1 3 4 5 6 8 10 11 10 10 7 5 8 14 17 19 20 20 16 11 9 8 7 6 5 6 5 5 5 6 7 8 9 10 11 12 12 11 12 12
0 0 0 0 0 0 0 0 0 2 6 7 7 8 9 11 11 11 12 10 7 8 12 17 19 22 23 19 13 9 9 8 8 7 8 8 8 8 9 9 9 11 12 13 13 12 11 11 12
0 0 0 0 0 0 0 0 1 3 8 10 9 9 11 12 11 11 11 11 10 10 14 17 19 22 24 21 14 9 8 9 10 11 12 12 12 12 12 11 11 12 12 13 13 12 10 11 12
0 0 0 0 0 0 0 0 1 4 7 10 9 9 12 13 12 11 11 11 11 13 16 19 20 23 24 21 14 9 8 8 9 13 16 16 14 14 14 14 13 13 12 12 12 12 11 11 12

GEFSSGP_con_prob3kmehi_336.txt.gz
EHI
4 6 12 17 13 5 1 0 0 0 0 0 0 0 0 0 0 0 0 0 1 2 2 1 0 1 2 3 3 2 1 0 0 0 0 0 1 3 2 1 0 0 0 0 0 1 3 3 2
7 12 18 19 11 3 0 0 0 0 0 0 0 0 0 0 0 0 0 1 2 3 2 1 1 1 2 3 4 5 4 1 0 0 1 1 2 3 2 1 0 0 0 0 0 1 2 3 2
14 18 22 17 7 1 0 0 0 0 0 0 0 0 0 0 0 0 0 1 2 2 2 3 3 3 1 2 5 8 7 3 1 1 2 3 3 3 2 1 0 0 1 0 0 1 1 2 1
20 21 18 10 3 0 0 0 0 0 0 0 0 0 0 0 0 0 0 0 1 1 2 3 4 3 1 2 5 7 7 4 2 2 3 3 3 3 2 1 0 0 0 0 1 2 1 1 1
20 18 12 5 1 0 0 0 0 0 0 0 0 0 0 0 0 0 0 0 0 1 1 2 3 3 2 3 4 5 4 3 2 2 3 3 3 3 2 1 0 0 0 0 0 1 0 0 1
18 14 7 2 0 0 0 0 0 0 0 0 0 0 0 0 0 0 0 0 0 0 1 1 3 4 3 3 4 3 3 2 1 1 2 3 3 3 2 1 1 1 0 0 0 0 0 0 1
15 9 3 1 0 0 0 0 0 0 0 0 0 0 1 1 1 0 0 0 0 1 1 1 2 3 3 3 3 3 2 1 1 1 2 3 5 5 4 3 2 1 0 0 0 0 0 0 1
9 5 1 0 0 0 0 0 0 0 0 0 1 1 2 3 2 1 0 1 0 1 2 1 0 1 1 2 3 4 3 2 2 2 3 4 5 6 5 3 2 1 0 0 0 0 1 3 4
3 2 1 0 0 0 0 0 0 0 0 1 2 4 5 5 3 1 1 1 0 1 1 1 0 0 0 1 3 5 5 5 5 5 5 5 4 4 3 2 2 2 1 1 2 3 5 6 7
1 1 0 0 0 0 0 0 0 0 1 2 5 7 7 6 4 3 3 2 1 0 0 0 0 0 0 1 3 3 4 5 6 6 6 6 4 2 1 1 3 4 4 4 6 7 8 7 7
0 0 0 0 0 0 0 0 0 0 1 3 7 8 8 6 6 5 4 4 2 1 1 1 1 0 0 1 1 2 2 4 5 6 7 7 6 4 3 2 3 4 6 7 8 8 8 6 5
0 0 0 0 0 0 0 0 0 0 1 4 7 8 7 7 6 6 5 5 4 3 3 2 2 1 1 0 0 1 2 3 4 6 8 8 7 6 5 3 3 4 6 7 8 8 7 6 6
0 0 0 0 0 0 0 1 0 1 2 4 5 6 6 6 6 6 5 5 5 4 4 4 4 5 4 2 1 1 1 2 4 6 8 8 8 7 6 5 4 4 5 8 9 7 6 7 9
0 0 0 0 1 1 1 1 0 1 3 4 5 5 5 6 6 6 5 5 5 4 4 5 7 9 7 5 3 2 2 2 3 6 8 9 9 9 9 8 7 6 7 9 9 7 6 7 8
0 0 0 1 2 3 3 2 1 2 5 7 6 5 5 5 5 6 7 7 6 5 5 6 8 9 9 6 3 2 1 2 3 5 8 10 11 13 12 10 10 10 10 10 9 7 6 6 6
0 0 0 1 3 4 4 3 3 5 8 10 7 4 5 6 6 7 8 8 9 9 8 6 6 7 8 6 5 3 2 3 4 5 7 10 13 14 13 12 11 11 11 10 10 9 8 7 7
0 0 0 1 2 4 4 4 4 6 8 8 5 4 5 7 8 8 8 9 11 13 13 9 7 7 7 7 8 8 7 6 5 5 8 11 13 13 12 12 11 10 9 9 9 10 12 13 13
0 0 0 0 2 3 4 4 3 4 5 5 5 5 7 9 11 11 9 10 14 19 19 15 12 11 9 8 10 11 10 9 7 7 9 11 11 11 12 13 12 10 9 9 9 11 15 18 18
1 1 1 1 2 3 4 4 3 3 4 5 6 8 9 12 15 16 14 14 18 25 26 21 16 15 14 12 12 13 12 12 11 10 11 12 12 11 12 14 15 13 12 12 12 12 13 15 14
0 0 1 2 3 3 3 3 4 4 5 7 8 10 11 14 19 21 21 19 21 28 32 27 21 19 18 16 16 16 15 14 12 11 13 14 14 12 11 14 15 15 14 14 15 15 12 9 9
0 0 1 2 3 2 2 3 4 4 6 8 11 11 11 14 21 24 25 23 22 28 32 30 27 24 21 19 17 17 16 13 10 10 13 15 15 14 14 14 15 15 14 14 17 17 12 8 8
0 0 1 2 3 2 2 3 4 5 6 8 12 13 12 14 21 25 26 25 25 26 30 31 30 28 25 21 18 15 14 11 8 8 11 14 16 18 19 19 19 18 17 15 16 15 12 9 9
0 0 0 1 2 2 2 2 3 5 6 9 12 14 14 15 20 25 27 27 26 25 26 29 31 32 30 26 21 18 15 13 11 10 11 13 18 21 22 22 23 22 19 17 15 13 12 10 10
0 0 0 0 1 1 1 1 1 4 6 10 13 14 14 15 18 23 27 28 28 26 24 27 34 38 36 30 23 20 19 18 16 13 12 13 17 21 21 21 23 23 20 18 17 15 13 12 13
0 0 0 0 0 0 1 1 1 3 6 11 15 14 13 14 16 21 26 29 30 28 28 32 39 42 38 31 26 23 22 21 18 15 12 12 14 18 20 21 22 21 19 19 20 19 16 16 16
0 0 0 0 0 0 2 2 2 3 7 12 15 15 14 14 16 19 23 26 28 31 36 42 46 45 39 34 30 28 24 19 17 16 14 13 13 16 21 23 23 20 17 19 23 23 22 20 19
0 0 0 0 0 1 3 4 5 5 7 12 15 14 13 13 15 18 19 21 24 31 40 47 50 50 46 40 35 31 26 19 16 17 18 17 17 20 24 27 25 22 19 22 26 27 27 25 22
0 0 0 0 0 1 2 4 5 6 9 12 14 12 11 11 15 17 17 17 20 28 39 47 52 56 53 46 38 32 27 22 17 19 20 21 23 26 27 28 28 26 25 27 28 28 27 26 25
0 0 0 0 0 0 1 1 3 7 11 13 14 13 12 12 15 17 16 14 17 25 36 45 51 56 55 48 41 35 31 26 22 21 22 23 26 28 27 28 29 29 30 31 29 25 23 24 25
0 0 0 0 0 0 0 0 2 6 11 14 16 15 14 14 16 17 15 14 17 24 34 43 48 53 54 48 40 36 33 30 26 25 25 26 26 26 26 27 29 30 31 31 28 24 20 20 22